When you browse on this site, cookies collect data to enhance your experience and personalize the content and advertising you see.
Visit our Privacy Policy to learn more. By continuing to use the site, you agree to this use of cookies and data.
  • In France
  • List of Countries
  • For 7 days
  • Water Temperature
  • Satellite Maps
  • Weather Map
  • Weather Widgets
  • user-avatar
    Login

    Hourly Weather Innsbruck

    Today, 18 April, Thursday

    Time Temperature Precipitation Wind Pressure Humidity
    00:00 -3°C° 0 mm 2 mps 597 mmHg 79%
    01:00 -2°C° 0 mm 3 mps 597 mmHg 75%
    02:00 -4°C° 0 mm 3 mps 597 mmHg 77%
    03:00 -4°C° 0 mm 3 mps 597 mmHg 79%
    04:00 -5°C° 0 mm 3 mps 597 mmHg 81%
    05:00 -4°C° 0 mm 3 mps 597 mmHg 80%
    06:00 -2°C° 0 mm 2 mps 598 mmHg 78%
    07:00 +1°C° 0 mm 2 mps 598 mmHg 74%
    08:00 +3°C° 0 mm 2 mps 599 mmHg 68%
    09:00 +5°C° 0 mm 2 mps 600 mmHg 62%
    10:00 +8°C° 0 mm 1 mps 601 mmHg 56%
    11:00 +9°C° 0 mm 1 mps 601 mmHg 54%
    12:00 +9°C° 0 mm 1 mps 601 mmHg 52%
    13:00 +9°C° 0 mm 1 mps 601 mmHg 51%
    14:00 +9°C° 0.1 mm 1 mps 601 mmHg 53%
    15:00 +9°C° 0.1 mm 1 mps 601 mmHg 54%
    16:00 +9°C° 0.1 mm 1 mps 601 mmHg 56%
    17:00 +6°C° 0.1 mm 2 mps 600 mmHg 63%
    18:00 +4°C° 0.1 mm 2 mps 600 mmHg 70%
    19:00 +2°C° 0.1 mm 2 mps 599 mmHg 77%
    20:00 +1°C° 0 mm 2 mps 599 mmHg 80%
    21:00 -1°C° 0 mm 2 mps 599 mmHg 83%
    22:00 -2°C° 0 mm 3 mps 599 mmHg 85%
    23:00 -2°C° 0 mm 3 mps 600 mmHg 86%

    Tomorrow, 19 April, Friday

    Time Temperature Precipitation Wind Pressure Humidity
    00:00 -2°C° 0 mm 3 mps 600 mmHg 87%
    01:00 -4°C° 0 mm 3 mps 600 mmHg 87%
    02:00 -4°C° 0 mm 3 mps 600 mmHg 87%
    03:00 -4°C° 0 mm 3 mps 600 mmHg 86%
    04:00 -5°C° 0 mm 3 mps 600 mmHg 85%
    05:00 -4°C° 0 mm 3 mps 600 mmHg 82%
    06:00 -2°C° 0 mm 3 mps 601 mmHg 78%
    07:00 -1°C° 0 mm 3 mps 601 mmHg 74%
    08:00 +3°C° 0 mm 2 mps 602 mmHg 66%
    09:00 +5°C° 0 mm 2 mps 603 mmHg 58%
    10:00 +8°C° 0 mm 2 mps 604 mmHg 50%
    11:00 +10°C° 0 mm 1 mps 605 mmHg 46%
    12:00 +11°C° 0 mm 1 mps 605 mmHg 42%
    13:00 +12°C° 0 mm 1 mps 605 mmHg 38%
    14:00 +12°C° 0 mm 1 mps 605 mmHg 38%
    15:00 +11°C° 0 mm 1 mps 605 mmHg 38%
    16:00 +11°C° 0 mm 1 mps 605 mmHg 38%
    17:00 +9°C° 0 mm 1 mps 603 mmHg 47%
    18:00 +6°C° 0 mm 1 mps 602 mmHg 56%
    19:00 +3°C° 0 mm 1 mps 601 mmHg 64%
    20:00 +3°C° 0 mm 1 mps 601 mmHg 65%
    21:00 +1°C° 0 mm 2 mps 601 mmHg 65%
    22:00 -1°C° 0 mm 2 mps 601 mmHg 65%
    23:00 -1°C° 0 mm 2 mps 601 mmHg 66%

    Day after tomorrow, 20 April, Saturday

    Time Temperature Precipitation Wind Pressure Humidity
    00:00 -2°C° 0 mm 2 mps 601 mmHg 66%
    01:00 -2°C° 0 mm 2 mps 601 mmHg 66%
    02:00 -2°C° 0 mm 2 mps 601 mmHg 66%
    03:00 -2°C° 0 mm 2 mps 601 mmHg 66%
    04:00 -3°C° 0 mm 2 mps 600 mmHg 66%
    05:00 -1°C° 0 mm 2 mps 601 mmHg 63%
    06:00 +1°C° 0 mm 2 mps 601 mmHg 59%
    07:00 +2°C° 0 mm 2 mps 602 mmHg 56%
    08:00 +4°C° 0 mm 2 mps 602 mmHg 49%
    09:00 +8°C° 0 mm 1 mps 603 mmHg 42%
    10:00 +10°C° 0 mm 1 mps 604 mmHg 35%
    11:00 +11°C° 0 mm 1 mps 604 mmHg 33%
    12:00 +12°C° 0 mm 1 mps 604 mmHg 31%
    13:00 +13°C° 0 mm 1 mps 605 mmHg 30%
    14:00 +13°C° 0 mm 1 mps 604 mmHg 30%
    15:00 +12°C° 0 mm 1 mps 604 mmHg 31%
    16:00 +12°C° 0 mm 1 mps 603 mmHg 31%
    17:00 +9°C° 0 mm 1 mps 602 mmHg 42%
    18:00 +7°C° 0 mm 1 mps 601 mmHg 52%
    19:00 +4°C° 0 mm 1 mps 599 mmHg 62%
    20:00 +3°C° 0 mm 1 mps 599 mmHg 60%
    21:00 +2°C° 0 mm 2 mps 599 mmHg 58%
    22:00 +1°C° 0 mm 2 mps 599 mmHg 56%
    23:00 -1°C° 0 mm 2 mps 599 mmHg 56%

    21 April, Sunday

    Time Temperature Precipitation Wind Pressure Humidity
    00:00 -1°C° 0 mm 2 mps 599 mmHg 55%
    01:00 -1°C° 0 mm 2 mps 598 mmHg 55%
    02:00 -2°C° 0 mm 2 mps 598 mmHg 58%
    03:00 -2°C° 0 mm 2 mps 598 mmHg 61%
    04:00 -2°C° 0 mm 2 mps 597 mmHg 64%
    05:00 -1°C° 0 mm 2 mps 597 mmHg 62%
    06:00 +1°C° 0 mm 2 mps 598 mmHg 60%
    07:00 +2°C° 0 mm 2 mps 598 mmHg 57%
    08:00 +5°C° 0 mm 2 mps 599 mmHg 48%
    09:00 +8°C° 0 mm 1 mps 599 mmHg 39%
    10:00 +10°C° 0 mm 1 mps 600 mmHg 30%
    11:00 +11°C° 0 mm 1 mps 600 mmHg 28%
    12:00 +12°C° 0 mm 2 mps 600 mmHg 26%
    13:00 +13°C° 0 mm 2 mps 600 mmHg 23%
    14:00 +13°C° 0 mm 2 mps 600 mmHg 24%
    15:00 +12°C° 0 mm 2 mps 599 mmHg 24%
    16:00 +12°C° 0 mm 2 mps 599 mmHg 25%
    17:00 +9°C° 0 mm 2 mps 597 mmHg 33%
    18:00 +6°C° 0 mm 2 mps 596 mmHg 42%
    19:00 +4°C° 0 mm 2 mps 595 mmHg 51%
    20:00 +3°C° 0 mm 2 mps 595 mmHg 55%
    21:00 +1°C° 0 mm 3 mps 595 mmHg 58%
    22:00 0°C° 0 mm 3 mps 594 mmHg 62%
    23:00 -1°C° 0 mm 3 mps 594 mmHg 68%

    22 April, Monday

    Time Temperature Precipitation Wind Pressure Humidity
    00:00 -1°C° 0 mm 3 mps 594 mmHg 73%
    01:00 -1°C° 0 mm 3 mps 594 mmHg 79%
    02:00 -1°C° 0 mm 3 mps 594 mmHg 80%
    03:00 -1°C° 0 mm 3 mps 593 mmHg 82%
    04:00 -1°C° 0 mm 3 mps 593 mmHg 83%
    05:00 0°C° 0 mm 3 mps 593 mmHg 79%
    06:00 0°C° 0 mm 3 mps 593 mmHg 75%
    07:00 +1°C° 0 mm 3 mps 593 mmHg 71%
    08:00 +3°C° 0 mm 3 mps 594 mmHg 59%
    09:00 +6°C° 0 mm 2 mps 594 mmHg 48%
    10:00 +9°C° 0 mm 2 mps 595 mmHg 37%
    11:00 +9°C° 0 mm 2 mps 595 mmHg 35%
    12:00 +10°C° 0 mm 3 mps 595 mmHg 33%
    13:00 +11°C° 0 mm 3 mps 595 mmHg 32%
    14:00 +11°C° 0 mm 3 mps 594 mmHg 35%
    15:00 +10°C° 0 mm 3 mps 593 mmHg 38%
    16:00 +9°C° 0 mm 3 mps 593 mmHg 41%
    17:00 +8°C° 0 mm 3 mps 592 mmHg 49%
    18:00 +5°C° 0 mm 3 mps 591 mmHg 58%
    19:00 +3°C° 0 mm 3 mps 590 mmHg 66%
    20:00 +2°C° 0 mm 3 mps 590 mmHg 71%
    21:00 +2°C° 0 mm 3 mps 589 mmHg 76%
    22:00 +1°C° 0 mm 3 mps 589 mmHg 81%
    23:00 +1°C° 0 mm 3 mps 589 mmHg 81%

    23 April, Tuesday

    Time Temperature Precipitation Wind Pressure Humidity
    00:00 0°C° 0 mm 3 mps 588 mmHg 81%
    01:00 0°C° 0 mm 3 mps 588 mmHg 82%
    02:00 0°C° 0 mm 3 mps 588 mmHg 81%
    03:00 0°C° 0 mm 3 mps 587 mmHg 80%
    04:00 0°C° 0 mm 3 mps 587 mmHg 80%
    05:00 +1°C° 0.1 mm 3 mps 587 mmHg 78%
    06:00 +1°C° 0.1 mm 3 mps 587 mmHg 75%
    07:00 +2°C° 0.1 mm 3 mps 588 mmHg 73%
    08:00 +4°C° 0.1 mm 3 mps 588 mmHg 67%
    09:00 +5°C° 0.1 mm 3 mps 589 mmHg 61%
    10:00 +8°C° 0.1 mm 3 mps 589 mmHg 56%
    11:00 +9°C° 0 mm 2 mps 590 mmHg 53%
    12:00 +9°C° 0 mm 2 mps 590 mmHg 51%
    13:00 +10°C° 0 mm 2 mps 590 mmHg 49%
    14:00 +10°C° 0.1 mm 2 mps 590 mmHg 50%
    15:00 +10°C° 0.1 mm 2 mps 590 mmHg 52%
    16:00 +11°C° 0.1 mm 1 mps 590 mmHg 53%
    17:00 +9°C° 0.2 mm 1 mps 590 mmHg 61%
    18:00 +7°C° 0.2 mm 2 mps 589 mmHg 68%
    19:00 +5°C° 0.2 mm 2 mps 589 mmHg 76%
    20:00 +4°C° 0 mm 2 mps 589 mmHg 79%
    21:00 +3°C° 0 mm 2 mps 589 mmHg 82%
    22:00 +1°C° 0 mm 3 mps 589 mmHg 85%
    23:00 +1°C° 0 mm 3 mps 590 mmHg 85%
    Show more